Regional Weather Roundup
Issued by NWS Albany, NY

Home | Current Version | Previous Version | Graphics & Text | Print | Product List | Glossary Off
Versions: 1 2 3 4 5 6 7 8 9 10 11 12 13 14 15 16 17 18 19 20 21 22 23 24 25 26 27 28

000
ASUS41 KALY 251210
RWRALY

NEW YORK STATE HOURLY WEATHER ROUNDUP
NATIONAL WEATHER SERVICE ALBANY NY
800 AM EDT WED MAY 25 2016

NOTE: "FAIR" INDICATES FEW OR NO CLOUDS BELOW 12,000 FEET WITH NO
SIGNIFICANT WEATHER AND/OR NO OBSTRUCTIONS TO VISIBILITY.

NYZ032-033-038>043-046>054-057>066-NYZ062>081-082-084-251300-
EAST


CITY           SKY/WX    TMP DP  RH WIND       PRES   REMARKS
ALBANY         MOSUNNY   59  54  83 S8        30.04R
GLENS FALLS    MOSUNNY   56  51  84 S3        30.02R
POUGHKEEPSIE   SUNNY     63  52  67 VRB3      30.05R
NEWBURGH       SUNNY     61  52  72 W8        30.07R
MONTGOMERY     SUNNY     59  53  80 SW10      30.06R
WHITE PLAINS   SUNNY     64  52  64 NW7       30.05R
ISLIP          MOSUNNY   63  57  81 SW6       30.05R
NEW YORK CITY  MOSUNNY   70  53  54 W6        30.06R
CENTRAL PARK   SUNNY     66  49  54 W5        30.09R
$$

NYZ005>009-017-018-044>046-055-056-251300-
CENTRAL


CITY           SKY/WX    TMP DP  RH WIND       PRES   REMARKS
FULTON         SUNNY     65  46  50 VRB3      30.03R
SYRACUSE       PTSUNNY   60  48  64 E5        30.03R
ROME           SUNNY     55  46  71 SE3       30.07R
ELMIRA         SUNNY     53  45  74 CALM      30.10S
BINGHAMTON     SUNNY     58  41  53 SW6       30.10R
MONTICELLO     SUNNY     54  50  87 W3        30.12R
$$

NYZ026>034-041>043-087-251300-
NORTH


CITY           SKY/WX    TMP DP  RH WIND       PRES   REMARKS
WATERTOWN      SUNNY     65  43  44 S6        30.00S
FORT DRUM      NOT AVBL
MASSENA        MOSUNNY   63  46  54 SW10      29.96R
SARANAC LAKE   SUNNY     60  44  55 S6        30.01S
PLATTSBURGH    SUNNY     61  53  75 SE9       29.94S
$$

NYZ001>004-010>016-019>021-085-251300-
WEST


CITY           SKY/WX    TMP DP  RH WIND       PRES   REMARKS
NIAGARA FALLS  PTSUNNY   65  48  54 SW9       30.04S
BUFFALO        MOSUNNY   68  45  43 SW15      30.06S
DUNKIRK        SUNNY     69  46  43 S9        30.09R
JAMESTOWN      CLOUDY    59  45  58 S6        30.13S
WELLSVILLE     CLOUDY    65  41  41 W9        30.15S
ROCHESTER      PTSUNNY   66  46  48 SW7       30.04S
PENN YAN       SUNNY     63  42  46 SW10      30.06S
$$

             KEY
       WCI = WIND CHILL INDEX
       VSB = VISIBILITY
       HX  = HEAT INDEX
$$




USA.gov is the U.S. government's official web portal to all federal, state and local government web resources and services.